Temp
77 77 77 76 76 77 77 77 78 78 77 78 78 78 78 79 80 80 80 80 80 79 79 78 78 78 80 79 78 79 78 78 80 80 78 79 79 79 80 79 79 79
77 77 77 77 76 77 77 78 78 78 77 77 79 79 79 79 80 80 80 80 80 81 80 79 79 79 79 79 78 78 78 78 78 82 80 79 79 79 80 81 81 79
77 77 77 77 77 77 78 78 78 78 79 79 80 79 80 81 81 80 80 80 80 82 80 80 79 79 80 79 78 79 79 77 78 80 79 79 80 78 80 81 81 81
77 78 79 79 79 79 79 78 77 77 78 78 79 81 81 82 81 81 80 80 80 80 81 81 80 81 80 80 78 78 78 77 79 78 78 79 79 80 81 80 81 81
79 78 79 79 79 80 79 79 79 78 79 79 80 80 80 79 80 81 80 80 79 80 80 80 80 80 79 79 79 78 79 78 78 77 77 77 78 79 80 80 80 81
79 79 79 79 80 79 80 80 80 80 79 80 80 80 80 80 80 81 81 80 81 80 81 80 79 78 79 79 78 78 79 80 79 77 76 76 78 79 80 80 79 79
78 79 79 80 81 80 80 80 81 81 81 81 80 80 80 80 80 80 80 80 79 78 80 78 77 78 79 78 77 77 77 77 78 77 77 77 77 78 79 80 78 78
76 77 78 79 81 80 80 80 80 80 81 79 79 79 80 80 80 80 81 80 80 79 79 79 78 78 79 79 78 77 78 80 79 77 76 77 77 77 77 78 79 77
76 76 77 77 78 79 80 80 80 80 80 80 80 80 80 80 80 81 79 79 79 79 78 79 78 79 78 76 76 74 75 75 76 78 77 77 78 77 78 78 77 77
75 75 76 76 77 77 78 79 80 80 80 79 79 80 81 80 80 80 78 76 75 75 74 75 73 71 72 74 74 73 72 73 74 73 73 74 73 75 75 74 75 76
75 75 75 75 76 77 77 78 78 78 78 78 77 77 78 79 77 77 74 72 73 72 73 72 72 73 73 74 73 72 72 73 73 73 73 72 73 74 74 73 73 74
75 76 76 75 76 75 76 77 76 76 76 75 76 76 76 75 74 74 74 73 73 73 72 72 73 73 73 73 73 73 72 72 72 72 72 72 73 73 72 73 73 73
74 74 75 75 74 74 75 75 75 75 75 75 75 75 74 72 72 73 73 74 73 73 73 73 73 73 72 72 73 73 73 73 72 72 72 72 72 72 72 72 72 73
74 74 74 74 74 74 74 74 74 74 74 74 74 73 71 71 72 73 73 73 72 72 72 73 72 72 72 72 73 73 73 73 72 72 72 72 72 72 72 72 72 72
74 74 74 74 73 72 72 73 73 74 73 74 74 72 71 72 73 73 73 72 72 73 73 73 72 72 72 72 72 73 73 72 73 72 72 71 71 71 71 71 71 72
73 74 73 73 71 70 71 72 72 73 73 73 73 72 71 72 72 73 73 73 72 73 73 73 72 73 74 76 76 74 72 73 73 72 72 72 71 71 71 71 72 72
73 73 73 72 70 70 71 71 72 72 72 71 71 72 71 72 72 72 72 73 73 73 72 72 73 73 76 70 71 73 75 73 72 72 72 72 71 71 70 71 72 72
73 72 71 69 70 70 71 71 71 71 71 71 71 71 71 72 72 72 72 73 73 72 72 72 72 75 70 69 72 71 75 74 73 73 73 72 72 72 73 73 73 73
73 72 69 68 69 70 71 71 71 71 71 71 71 71 71 72 71 72 72 72 72 71 71 72 72 73 67 70 69 69 70 74 73 73 72 72 72 72 72 72 72 72
72 71 69 69 69 69 69 70 71 71 71 71 71 72 71 71 71 71 71 71 71 71 70 71 71 72 67 68 67 68 68 72 72 72 72 71 71 71 72 71 71 71
71 71 70 69 69 69 70 70 71 72 71 71 71 71 70 70 70 70 71 71 71 71 70 70 72 69 67 67 65 65 67 72 72 72 71 71 71 72 72 72 72 72
72 71 71 71 70 71 71 71 71 71 71 71 70 70 70 70 70 70 71 70 70 70 70 70 70 67 66 65 64 64 71 72 70 70 70 70 70 70 71 71 71 71
72 71 71 71 71 71 71 71 71 71 71 71 69 69 69 69 69 70 70 70 70 70 70 69 71 66 62 62 62 63 69 70 70 70 70 70 69 70 70 70 71 73
72 72 71 71 71 71 71 71 71 71 71 71 69 69 69 70 69 69 70 70 70 70 70 70 70 67 61 60 61 64 70 69 69 68 68 67 67 68 69 69 71 74
72 72 72 72 71 71 71 71 71 70 71 71 70 70 70 69 70 69 69 69 70 70 73 72 69 66 59 60 59 62 67 68 68 67 67 66 66 67 68 68 68 69
72 72 72 72 71 71 71 71 71 70 70 71 70 69 70 70 71 70 69 69 70 71 70 70 69 69 64 58 58 60 65 68 67 68 66 65 65 67 67 68 68 67
MSLP
1015.55 1015.75 1015.99 1016.11 1016.15 1016.11 1016.27 1016.51 1016.59 1016.79 1016.91 1016.91 1017.11 1017.07 1017.07 1016.87 1016.87 1017.07 1017.15 1017.23 1017.31 1017.39 1017.43 1017.51 1017.55 1017.67 1017.63 1017.67 1017.71 1017.83 1017.91 1017.99 1017.91 1017.91 1018.07 1018.15 1018.27 1018.31 1018.39 1018.39 1018.47 1018.47
1015.39 1015.51 1015.63 1015.79 1015.95 1015.91 1015.91 1015.91 1016.19 1016.47 1016.67 1016.71 1016.67 1016.63 1016.59 1016.59 1016.59 1016.67 1016.83 1016.95 1016.95 1017.07 1017.03 1017.15 1017.27 1017.35 1017.43 1017.51 1017.55 1017.71 1017.79 1017.87 1017.99 1017.67 1017.95 1018.07 1018.03 1018.07 1018.11 1018.07 1018.11 1018.11
1015.51 1015.55 1015.63 1015.75 1015.79 1015.83 1015.83 1015.87 1016.03 1016.23 1016.35 1016.31 1016.31 1016.35 1016.35 1016.23 1016.35 1016.35 1016.43 1016.55 1016.75 1016.79 1016.87 1016.91 1017.03 1017.11 1017.19 1017.27 1017.31 1017.47 1017.59 1017.75 1017.83 1017.67 1017.79 1017.87 1017.79 1017.95 1017.79 1017.71 1017.83 1017.91
1015.03 1015.11 1015.19 1015.23 1015.35 1015.51 1015.59 1015.79 1015.87 1015.99 1016.03 1016.23 1016.23 1016.07 1016.03 1016.03 1016.11 1016.23 1016.31 1016.39 1016.59 1016.67 1016.67 1016.75 1016.87 1016.91 1017.03 1017.11 1017.27 1017.47 1017.47 1017.51 1017.43 1017.51 1017.71 1017.71 1017.67 1017.63 1017.63 1017.55 1017.55 1017.59
1014.47 1014.67 1014.79 1014.91 1014.95 1015.11 1015.31 1015.63 1015.79 1015.91 1015.95 1015.87 1015.79 1015.83 1015.99 1016.11 1016.19 1016.27 1016.35 1016.39 1016.39 1016.47 1016.51 1016.59 1016.59 1016.71 1016.79 1016.91 1017.03 1017.27 1017.23 1017.31 1017.23 1017.39 1017.63 1017.71 1017.51 1017.55 1017.43 1017.47 1017.59 1017.63
1014.23 1014.35 1014.47 1014.67 1014.79 1015.07 1015.31 1015.47 1015.55 1015.67 1015.71 1015.71 1015.63 1015.59 1015.79 1015.91 1016.11 1016.15 1016.15 1016.23 1016.19 1016.19 1016.23 1016.27 1016.39 1016.39 1016.47 1016.63 1016.83 1016.99 1017.07 1017.23 1017.15 1017.27 1017.51 1017.63 1017.51 1017.31 1017.27 1017.27 1017.39 1017.55
1014.31 1014.35 1014.43 1014.43 1014.71 1014.87 1015.23 1015.35 1015.39 1015.39 1015.31 1015.19 1015.27 1015.59 1015.67 1015.95 1015.99 1015.87 1015.75 1015.79 1015.87 1015.95 1016.03 1016.11 1016.15 1016.19 1016.11 1016.35 1016.59 1016.79 1016.83 1016.95 1016.99 1017.15 1017.35 1017.35 1017.31 1017.31 1017.11 1017.11 1017.19 1017.27
1014.15 1014.07 1014.15 1014.35 1014.63 1014.87 1015.11 1015.23 1015.23 1015.15 1014.95 1015.07 1015.39 1015.43 1015.51 1015.67 1015.59 1015.43 1015.39 1015.51 1015.71 1015.79 1015.79 1015.83 1015.87 1015.91 1015.95 1016.15 1016.47 1016.59 1016.71 1016.71 1016.79 1016.91 1017.15 1017.15 1017.11 1017.19 1016.99 1016.91 1016.87 1017.07
1014.03 1014.23 1014.31 1014.51 1014.71 1014.79 1014.95 1014.95 1014.87 1014.71 1014.63 1014.99 1015.19 1015.31 1015.23 1015.23 1015.19 1015.23 1015.35 1015.43 1015.59 1015.63 1015.71 1015.75 1015.91 1016.27 1016.63 1017.03 1017.39 1017.99 1018.35 1018.43 1018.31 1017.95 1017.59 1017.51 1017.27 1017.03 1016.83 1016.75 1016.91 1016.91
1013.99 1014.07 1014.27 1014.43 1014.67 1014.67 1014.75 1014.63 1014.47 1014.39 1014.43 1014.75 1014.87 1014.99 1015.07 1014.95 1015.07 1015.35 1015.59 1016.19 1016.75 1017.03 1017.31 1017.47 1017.75 1017.95 1017.99 1017.71 1017.43 1017.27 1017.35 1017.51 1017.67 1018.15 1018.63 1018.71 1018.59 1018.43 1018.27 1018.31 1018.07 1017.51
1013.79 1013.91 1014.11 1014.23 1014.35 1014.39 1014.51 1014.39 1014.19 1014.11 1014.31 1014.63 1014.87 1015.03 1015.11 1015.39 1015.55 1015.67 1016.11 1016.71 1016.67 1016.35 1016.55 1016.75 1016.95 1017.15 1017.23 1017.15 1016.95 1016.83 1016.71 1016.67 1016.71 1016.91 1017.23 1017.47 1017.59 1017.79 1018.03 1018.31 1018.51 1018.35
1013.55 1013.71 1013.91 1014.03 1014.23 1014.43 1014.35 1013.99 1013.83 1014.15 1014.59 1014.71 1014.87 1015.19 1015.39 1015.75 1016.23 1016.27 1016.03 1016.03 1015.91 1016.27 1016.51 1016.55 1016.43 1016.43 1016.59 1016.59 1016.51 1016.51 1016.59 1016.63 1016.55 1016.39 1016.31 1016.27 1016.43 1016.63 1016.83 1017.11 1017.39 1017.35
1013.39 1013.51 1013.71 1014.27 1014.55 1014.39 1014.03 1013.79 1013.95 1014.27 1014.43 1014.67 1014.91 1015.35 1015.95 1016.71 1016.67 1016.07 1015.75 1015.75 1015.91 1015.91 1015.83 1015.79 1015.87 1016.11 1016.43 1016.47 1016.43 1016.35 1016.39 1016.47 1016.35 1016.39 1016.51 1016.59 1016.63 1016.59 1016.47 1016.71 1017.19 1017.43
1013.31 1013.51 1013.91 1014.35 1014.35 1014.15 1013.87 1013.91 1014.19 1014.47 1014.63 1014.87 1015.27 1015.83 1016.31 1016.35 1015.83 1015.19 1015.03 1015.35 1015.55 1015.67 1015.63 1015.63 1015.79 1016.03 1016.31 1016.39 1016.43 1016.39 1016.43 1016.43 1016.39 1016.47 1016.47 1016.55 1016.55 1016.51 1016.39 1016.19 1016.27 1016.51
1013.23 1013.43 1013.95 1014.31 1014.43 1014.27 1014.07 1014.23 1014.31 1014.59 1014.87 1015.07 1015.39 1015.67 1015.63 1015.47 1015.31 1015.35 1015.59 1015.51 1015.31 1015.43 1015.75 1015.75 1015.83 1015.87 1015.83 1016.11 1016.39 1016.43 1016.43 1016.55 1016.51 1016.51 1016.59 1016.59 1016.47 1016.39 1016.35 1016.27 1016.27 1016.27
1013.07 1013.43 1013.99 1014.39 1014.71 1014.63 1014.31 1014.19 1014.35 1014.83 1015.15 1015.23 1015.39 1015.59 1015.55 1015.39 1015.35 1015.43 1015.55 1015.67 1015.71 1015.47 1015.35 1015.75 1016.19 1016.19 1016.15 1016.07 1016.15 1016.31 1016.35 1016.31 1016.27 1016.23 1016.31 1016.35 1016.43 1016.39 1016.31 1016.23 1016.15 1016.11
1013.07 1013.51 1014.03 1014.67 1014.99 1014.63 1014.15 1014.19 1014.43 1014.71 1015.03 1014.99 1015.11 1015.43 1015.55 1015.47 1015.43 1015.59 1015.67 1015.75 1015.87 1015.75 1015.55 1015.63 1015.83 1015.87 1015.75 1015.95 1016.07 1016.07 1016.11 1016.19 1016.23 1016.27 1016.27 1016.31 1016.43 1016.59 1016.55 1016.31 1016.07 1015.95
1013.23 1013.67 1014.51 1015.03 1014.91 1014.39 1014.15 1014.63 1014.75 1014.91 1015.11 1015.03 1015.11 1015.51 1015.31 1015.19 1015.35 1015.51 1015.51 1015.63 1015.79 1015.83 1015.91 1015.87 1015.79 1015.55 1015.67 1015.91 1016.07 1016.19 1016.07 1015.99 1016.11 1016.27 1016.31 1016.31 1016.35 1016.35 1016.27 1016.19 1016.11 1016.03
1013.23 1014.03 1014.67 1014.67 1014.39 1014.35 1014.63 1014.79 1014.83 1015.19 1015.31 1015.27 1015.35 1015.63 1015.67 1015.59 1015.51 1015.55 1015.71 1015.83 1016.03 1016.35 1016.35 1016.11 1015.99 1015.79 1015.95 1016.11 1016.11 1016.11 1015.99 1015.91 1016.11 1016.27 1016.35 1016.35 1016.27 1016.23 1016.19 1016.15 1016.15 1016.19
1013.19 1014.15 1014.59 1014.71 1014.47 1014.23 1014.51 1014.79 1014.91 1015.23 1015.39 1015.35 1015.35 1015.47 1015.63 1015.67 1015.71 1015.83 1015.87 1015.95 1015.99 1016.07 1016.03 1015.95 1016.03 1015.99 1016.07 1015.87 1015.83 1015.99 1016.19 1016.31 1016.31 1016.31 1016.35 1016.39 1016.39 1016.31 1016.19 1016.07 1016.07 1016.19
1013.23 1013.99 1014.47 1014.59 1014.27 1014.11 1014.35 1014.63 1014.91 1015.39 1015.59 1015.47 1015.31 1015.31 1015.47 1015.55 1015.67 1015.83 1015.83 1015.79 1015.83 1015.87 1016.03 1016.03 1015.99 1015.87 1015.91 1015.71 1015.95 1016.47 1016.55 1016.43 1016.39 1016.27 1016.23 1016.23 1016.11 1015.99 1015.91 1015.87 1015.87 1015.91
1013.39 1013.87 1014.19 1014.27 1014.27 1014.19 1014.35 1014.55 1014.87 1015.19 1015.31 1015.15 1015.15 1015.23 1015.27 1015.35 1015.55 1015.63 1015.75 1015.79 1015.75 1015.75 1015.83 1015.99 1015.91 1015.79 1015.67 1015.87 1016.31 1016.23 1015.95 1016.03 1016.19 1016.23 1016.23 1016.15 1016.11 1015.99 1015.83 1015.71 1015.71 1015.75
1013.43 1013.83 1014.03 1014.15 1014.11 1014.15 1014.31 1014.51 1014.71 1014.91 1015.03 1015.07 1015.27 1015.31 1015.31 1015.35 1015.39 1015.43 1015.43 1015.55 1015.67 1015.63 1015.67 1015.79 1015.67 1015.71 1015.91 1015.99 1015.95 1015.99 1016.03 1016.19 1016.23 1016.19 1016.15 1016.11 1016.07 1015.87 1015.79 1015.71 1015.67 1015.63
1013.43 1013.71 1013.95 1014.03 1013.99 1014.11 1014.27 1014.39 1014.47 1014.59 1014.83 1014.99 1015.35 1015.43 1015.47 1015.31 1015.39 1015.39 1015.39 1015.47 1015.55 1015.63 1015.67 1015.75 1015.87 1016.07 1016.15 1016.07 1016.07 1016.07 1016.07 1016.23 1016.23 1016.23 1016.23 1016.19 1016.11 1015.95 1015.83 1015.83 1015.83 1015.67
1013.43 1013.71 1013.87 1013.87 1013.91 1014.03 1014.19 1014.43 1014.55 1014.63 1014.67 1014.75 1014.87 1014.99 1015.15 1015.23 1015.31 1015.59 1015.75 1015.71 1015.59 1015.59 1015.51 1015.71 1015.95 1016.15 1016.27 1016.35 1016.43 1016.39 1016.27 1016.23 1016.19 1016.23 1016.39 1016.47 1016.39 1016.31 1016.15 1016.07 1016.03 1015.95
1013.55 1013.75 1013.75 1013.71 1013.83 1014.07 1014.27 1014.43 1014.55 1014.67 1014.71 1014.75 1014.87 1014.91 1015.07 1015.19 1015.15 1015.31 1015.55 1015.63 1015.63 1015.63 1015.75 1015.79 1015.99 1016.23 1016.47 1016.63 1016.59 1016.47 1016.31 1016.23 1016.31 1016.43 1016.59 1016.59 1016.55 1016.47 1016.43 1016.27 1016.15 1016.03
Wind_Speed
9 8 9 9 8 8 7 7 6 6 7 6 6 6 7 7 6 7 7 6 8 7 7 7 6 6 6 6 6 5 5 6 5 5 5 4 5 5 5 6 5 5
10 8 7 7 6 6 7 7 7 7 7 6 6 6 6 6 7 7 7 7 7 7 7 7 7 7 7 6 6 6 6 5 6 3 5 6 6 5 5 6 6 5
7 8 9 9 8 8 7 6 5 6 6 6 6 6 6 6 6 7 7 7 7 7 7 7 7 7 7 7 6 6 6 6 6 5 5 7 6 6 6 5 4 5
10 10 10 9 9 8 7 6 6 6 5 5 6 6 6 6 7 7 7 8 7 8 7 6 7 6 6 6 5 4 5 5 5 4 5 5 5 5 6 4 5 4
12 11 9 8 8 7 7 7 7 6 6 7 7 6 7 6 6 6 6 7 7 7 6 7 6 6 7 6 6 6 6 5 5 5 5 6 6 5 5 5 5 6
8 7 8 8 7 7 6 6 6 6 6 7 8 6 7 7 6 6 7 8 7 8 8 8 8 8 7 6 5 5 5 5 4 5 6 7 6 5 4 5 6 6
7 7 8 7 6 6 5 6 5 6 7 7 5 6 5 6 7 8 8 8 9 8 9 8 8 8 7 7 6 6 6 6 6 5 6 6 6 7 6 6 6 7
7 7 6 5 6 5 5 5 5 6 7 6 6 6 5 6 8 8 7 8 7 8 8 9 8 8 7 6 6 7 6 4 5 6 6 8 6 8 8 6 6 7
6 5 4 5 5 5 5 6 7 7 6 6 6 5 5 7 8 7 6 6 6 6 8 7 6 3 4 6 7 9 12 11 11 10 7 7 7 9 9 7 6 6
7 6 6 6 7 6 6 6 7 7 6 6 6 4 6 5 4 2 3 6 9 10 11 10 12 10 4 1 4 6 5 5 4 6 9 13 13 12 11 10 10 8
8 8 8 8 8 7 7 6 8 7 5 4 4 4 3 1 4 6 8 7 3 5 3 4 4 2 3 3 2 3 4 4 5 4 4 5 6 4 4 7 11 12
8 8 9 9 6 4 5 8 8 4 2 1 2 2 1 6 9 7 5 4 4 4 5 3 4 6 5 3 2 3 3 3 3 3 4 5 3 2 4 5 7 10
9 9 7 4 6 5 6 7 6 4 4 4 3 4 8 10 6 3 2 2 3 5 6 8 7 4 2 2 3 3 3 3 3 3 3 3 1 2 3 3 5 6
6 5 5 7 6 6 8 6 3 2 1 3 6 9 11 7 4 8 5 2 3 5 3 1 1 2 3 3 2 3 3 3 3 3 3 3 2 4 4 5 4 4
5 5 7 8 7 5 6 5 5 1 4 4 6 7 7 6 5 1 2 0 3 3 4 6 4 3 3 2 4 3 2 2 3 3 2 3 4 4 5 5 6 5
5 5 8 9 8 4 5 5 4 2 4 3 4 6 6 5 3 3 3 3 3 5 5 3 4 3 4 7 6 3 2 3 3 3 3 4 5 6 7 6 6 5
6 6 8 9 9 5 6 5 3 1 2 2 4 6 5 5 5 6 6 5 5 3 4 3 2 1 2 2 1 3 3 3 2 2 3 4 5 6 7 7 6 5
4 7 10 10 9 8 8 2 1 1 1 2 1 6 2 2 3 3 4 5 5 4 3 3 3 4 2 2 1 2 5 3 2 3 4 5 6 7 6 6 6 6
5 8 10 12 9 7 4 3 4 2 3 3 2 5 6 4 2 1 2 3 4 4 3 1 2 3 3 3 3 3 4 7 4 5 5 5 5 5 5 5 5 5
5 8 9 12 10 10 7 5 5 6 4 4 3 4 5 5 4 3 3 4 4 2 1 1 2 3 3 1 4 6 5 5 2 2 4 3 3 4 5 4 3 4
7 7 11 13 10 8 7 7 7 6 7 6 5 5 4 4 5 4 3 3 3 2 2 2 1 2 3 3 3 5 7 3 2 2 2 3 4 4 5 5 5 4
7 7 9 10 11 8 7 7 6 6 6 5 4 3 4 4 3 2 3 3 3 4 3 1 2 2 4 2 5 3 3 2 2 2 2 3 4 4 3 3 2 2
7 7 7 9 9 9 9 7 6 6 7 6 6 5 5 4 4 4 4 4 4 2 1 1 2 4 4 5 3 2 2 2 2 1 1 2 2 3 3 4 3 2
7 6 7 8 10 10 9 7 5 4 6 6 7 7 6 5 5 3 2 2 3 3 4 2 2 4 4 5 3 1 2 2 1 2 3 3 4 5 4 4 6 10
7 7 6 7 8 9 7 7 6 5 4 4 3 3 3 2 2 3 3 3 3 3 5 3 4 4 5 5 6 4 2 2 3 3 4 4 4 4 4 4 4 5
6 8 7 7 7 6 6 6 5 4 3 2 2 2 1 1 0 1 2 2 1 2 3 4 4 4 5 6 5 5 4 4 3 4 4 3 3 3 3 3 4 4
Wind_Direction
197 195 199 202 208 209 203 199 199 203 212 207 206 211 209 216 205 201 207 213 216 219 220 220 220 220 217 217 216 216 216 225 229 220 220 213 226 210 212 214 214 214
202 200 205 204 208 210 210 202 200 202 208 210 214 211 217 214 210 199 206 212 214 221 222 219 218 220 219 214 209 207 215 212 230 211 215 214 224 210 223 216 213 207
210 205 205 204 204 208 205 201 199 201 205 208 212 214 217 215 216 208 211 212 216 223 225 224 223 222 218 220 213 209 210 213 224 223 220 222 218 215 224 212 209 199
204 208 208 208 206 204 198 192 200 202 204 208 211 211 214 218 218 215 215 215 217 225 227 223 225 223 219 221 205 215 218 222 228 219 226 236 229 222 225 213 218 216
200 204 208 212 211 208 196 197 197 194 201 211 213 213 215 219 217 219 217 219 217 221 219 220 216 216 214 214 205 216 214 219 214 203 219 234 234 222 230 217 222 227
208 205 205 208 208 204 205 204 201 197 204 209 212 205 210 212 216 219 216 216 211 216 216 214 212 216 207 212 203 221 225 226 220 195 210 229 240 227 231 221 219 228
207 202 205 204 202 201 208 210 206 208 212 217 210 214 200 202 216 222 221 215 215 213 213 210 209 212 205 202 202 218 222 226 231 205 214 231 231 240 227 226 222 225
203 206 205 196 197 181 190 194 209 216 218 213 212 216 196 208 218 223 222 219 214 216 216 213 214 216 204 194 206 218 224 229 228 223 233 246 244 248 242 222 219 218
195 197 167 174 184 182 190 198 210 222 217 215 213 206 195 211 223 225 226 221 219 222 224 224 228 252 345 359 1 7 359 347 331 314 305 293 271 258 251 249 234 224
190 180 172 176 187 194 201 208 215 221 216 215 215 202 209 220 236 285 338 1 4 360 356 1 28 36 10 206 153 149 182 232 286 323 324 314 314 317 325 321 299 290
187 183 186 186 188 182 197 210 222 222 210 208 184 212 208 68 48 36 68 96 174 188 163 120 136 173 232 252 204 171 181 189 190 184 198 243 261 273 327 317 305 287
189 192 199 198 179 140 174 209 217 202 111 107 151 184 41 46 45 54 83 146 179 121 133 158 194 208 204 187 180 174 171 193 205 195 207 216 205 172 193 223 260 280
191 199 196 135 106 156 205 217 212 159 160 183 99 71 50 61 58 314 243 192 137 143 161 169 185 202 194 220 194 197 191 191 200 203 221 254 138 184 229 211 223 261
191 172 130 109 128 176 216 222 232 140 94 62 75 76 88 112 187 232 223 155 154 162 148 101 80 189 176 194 247 249 256 263 271 259 252 257 236 242 242 249 232 191
164 155 114 119 135 202 241 236 244 185 71 60 82 108 124 152 197 301 57 205 275 251 152 164 188 249 302 254 248 244 212 278 239 228 215 239 252 253 242 251 255 234
152 128 116 123 135 162 248 250 259 82 102 120 120 118 135 172 175 175 172 194 250 274 264 168 148 178 221 241 248 246 189 217 205 189 202 218 233 254 265 260 261 258
141 128 112 109 116 178 231 241 252 314 86 155 141 124 145 184 209 217 213 192 201 242 290 312 301 216 266 128 215 262 230 213 223 220 239 247 252 260 267 267 266 262
129 112 102 109 145 192 213 196 332 8 130 201 130 97 112 191 196 210 203 190 177 182 236 285 319 302 116 224 241 3 353 325 293 283 273 263 266 272 275 288 293 294
133 117 120 135 154 182 205 193 205 171 189 203 212 138 153 170 186 157 170 149 150 162 197 234 265 218 156 257 314 23 340 319 290 268 263 263 275 283 286 290 301 313
109 106 124 132 160 183 178 197 203 197 182 193 195 156 139 134 145 167 176 178 170 158 167 203 212 159 159 301 354 356 304 267 241 239 248 254 257 262 264 265 281 311
103 117 131 149 168 178 179 189 199 162 155 169 172 158 150 159 166 173 194 177 149 140 194 224 214 22 280 31 36 246 239 215 220 254 284 293 290 283 286 293 306 312
127 132 141 153 165 173 175 185 181 164 159 155 150 145 153 159 158 159 169 172 182 183 193 146 221 314 34 94 205 183 157 151 223 225 236 246 261 292 308 312 316 307
144 151 150 151 155 160 163 167 170 157 150 145 149 159 158 175 185 187 201 190 189 197 169 196 291 61 132 163 114 128 140 151 203 189 19 26 18 2 351 21 18 10
153 151 151 149 147 147 148 152 156 155 160 155 154 159 165 185 182 172 219 235 219 215 207 183 149 129 145 100 78 31 122 132 85 56 52 33 15 18 15 26 27 23
149 150 151 147 143 144 143 144 154 162 159 147 141 134 135 150 150 149 161 196 219 217 223 168 129 104 101 89 66 30 71 69 60 57 55 36 15 15 12 17 10 10
145 150 147 142 138 134 141 143 139 137 141 97 75 97 91 109 147 112 145 128 102 100 72 92 116 103 98 81 66 43 47 73 53 58 45 30 25 21 9 6 3 359